This demonstration page uses our WeatherBlox Daily Observations layout. Learn more.

Left ArrowRight Arrow

Hourly Observations for August 13, 2018

Temp ( °F °C ) Dew Point ( °F °C ) Humidity (%) Winds ( mph kmh ) Pressure ( in mb ) Visibility ( mi km ) Precip ( " mm )
12:16 am 00:16 Clear 64 18 64 18 100 100 N N/A 30.12 1020 10 16 N/A
12:37 am 00:37 Clear 66 19 66 19 100 100 N N/A 30.12 1020 10 16 N/A
12:56 am 00:56 Clear 64 18 64 18 100 100 N N/A 30.12 1020 10 16 N/A
1:16 am 01:16 Clear 63 17 63 17 100 100 N N/A 30.12 1020 10 16 N/A
1:37 am 01:37 Clear 64 18 64 18 100 100 N N/A 30.12 1020 10 16 N/A
1:56 am 01:56 Clear 64 18 64 18 100 100 N N/A 30.12 1020 10 16 N/A
2:17 am 02:17 Clear 61 16 61 16 100 100 N N/A 30.12 1020 7 11 N/A
2:37 am 02:37 Clear 63 17 63 17 100 100 N N/A 30.12 1020 3 5 N/A
2:56 am 02:56 Clear 63 17 63 17 100 100 N N/A 30.12 1020 2 3 N/A
3:17 am 03:17 Clear 63 17 63 17 100 100 N N/A 30.09 1019 10 16 N/A
3:36 am 03:36 Clear 61 16 61 16 100 100 N N/A 30.09 1019 10 16 N/A
3:56 am 03:56 Clear 61 16 61 16 100 100 N N/A 30.09 1019 5 8 N/A
4:17 am 04:17 Mostly Cloudy 61 16 61 16 100 100 N N/A 30.09 1019 2 2 N/A
4:36 am 04:36 Clear 61 16 61 16 100 100 NE 3 6 30.09 1019 4 6 N/A
4:56 am 04:56 Mostly Cloudy 61 16 61 16 100 100 N N/A 30.09 1019 2 3 N/A
5:17 am 05:17 Clear 61 16 61 16 100 100 N N/A 30.09 1019 7 11 N/A
5:36 am 05:36 Clear 61 16 61 16 100 100 N N/A 30.09 1019 5 8 N/A
5:56 am 05:56 Clear 61 16 61 16 100 100 N N/A 30.09 1019 3 4 N/A
6:17 am 06:17 Mostly Cloudy 61 16 61 16 100 100 N N/A 30.09 1019 2 2 N/A
6:36 am 06:36 Clear 59 15 59 15 100 100 N N/A 30.09 1019 5 8 N/A
6:57 am 06:57 Sunny 59 15 59 15 100 100 N N/A 30.09 1019 2 3 N/A
7:16 am 07:16 Mostly Cloudy 57 14 57 14 100 100 N N/A 30.09 1019 1 2 N/A
7:36 am 07:36 Mostly Cloudy 61 16 61 16 100 100 N N/A 30.12 1020 0 0 N/A
7:57 am 07:57 Mostly Cloudy 61 16 61 16 100 100 N N/A 30.12 1020 5 8 N/A
8:16 am 08:16 Mostly Cloudy 64 18 64 18 100 100 N N/A 30.12 1020 1 1 N/A
8:37 am 08:37 Sunny 66 19 66 19 100 100 N N/A 30.12 1020 3 4 N/A
8:56 am 08:56 Sunny 66 19 66 19 100 100 N N/A 30.12 1020 4 6 N/A
9:17 am 09:17 Sunny 70 21 70 21 100 100 ENE 5 7 30.12 1020 5 8 N/A
9:36 am 09:36 Sunny 70 21 70 21 100 100 NE 5 7 30.12 1020 7 11 N/A
9:56 am 09:56 Sunny 72 22 72 22 100 100 N N/A 30.09 1019 7 11 N/A
10:17 am 10:17 Sunny 73 23 72 22 94 94 N N/A 30.09 1019 10 16 N/A
10:36 am 10:36 Sunny 73 23 72 22 94 94 N N/A 30.09 1019 10 16 N/A
10:57 am 10:57 Sunny 75 24 72 22 89 89 E 3 6 30.09 1019 10 16 N/A
11:16 am 11:16 Sunny 77 25 72 22 83 83 E 5 7 30.09 1019 10 16 N/A
11:36 am 11:36 Sunny 77 25 72 22 83 83 ENE 3 6 30.09 1019 10 16 N/A
11:57 am 11:57 Sunny 79 26 72 22 79 79 ENE 7 11 30.09 1019 10 16 N/A
12:16 pm 12:16 Sunny 79 26 72 22 79 79 ENE 6 9 30.09 1019 10 16 N/A
12:37 pm 12:37 Sunny 79 26 72 22 79 79 ENE 7 11 30.09 1019 10 16 N/A
12:57 pm 12:57 Sunny 81 27 70 21 70 70 NNE 5 7 30.09 1019 10 16 N/A
1:16 pm 13:16 Partly Cloudy 81 27 70 21 70 70 N N/A 30.09 1019 10 16 N/A
1:37 pm 13:37 Sunny 81 27 70 21 70 70 ENE 3 6 30.06 1018 10 16 N/A
1:56 pm 13:56 Mostly Cloudy 82 28 70 21 66 66 N N/A 30.06 1018 10 16 N/A
2:17 pm 14:17 Partly Cloudy 82 28 70 21 66 66 N N/A 30.06 1018 10 16 N/A
2:36 pm 14:36 Mostly Cloudy 81 27 70 21 70 70 NNE 6 9 30.06 1018 10 16 N/A
2:56 pm 14:56 Partly Cloudy 82 28 70 21 66 66 NE 5 7 30.06 1018 10 16 N/A
3:17 pm 15:17 Sunny 82 28 68 20 62 62 NE 3 6 30.06 1018 10 16 N/A
3:36 pm 15:36 Partly Cloudy 82 28 70 21 66 66 ENE 5 7 30.03 1017 10 16 N/A
3:57 pm 15:57 Partly Cloudy 82 28 70 21 66 66 ENE 6 9 30.03 1017 10 16 N/A
4:16 pm 16:16 Mostly Cloudy 82 28 70 21 66 66 NE 7 11 30.03 1017 10 16 N/A
4:36 pm 16:36 Partly Cloudy 82 28 68 20 62 62 N 5 7 30.03 1017 10 16 N/A
4:57 pm 16:57 Sunny 82 28 68 20 62 62 N N/A 30.03 1017 10 16 N/A
5:16 pm 17:16 Sunny 82 28 70 21 66 66 E 5 7 30.03 1017 10 16 N/A
5:37 pm 17:37 Partly Cloudy 82 28 70 21 66 66 N N/A 30.03 1017 10 16 N/A
5:56 pm 17:56 Partly Cloudy 82 28 70 21 66 66 NE 3 6 30.00 1016 10 16 N/A
6:17 pm 18:17 Sunny 82 28 70 21 66 66 NE 3 6 30.00 1016 10 16 N/A
6:37 pm 18:37 Sunny 82 28 70 21 66 66 NNE 3 6 30.00 1016 10 16 N/A
6:56 pm 18:56 Sunny 81 27 68 20 66 66 N N/A 30.00 1016 10 16 N/A
7:17 pm 19:17 Sunny 79 26 72 22 79 79 N N/A 30.00 1016 10 16 N/A
7:36 pm 19:36 Sunny 79 26 72 22 79 79 N N/A 30.00 1016 10 16 N/A
7:57 pm 19:57 Sunny 79 26 72 22 79 79 N N/A 30.00 1016 10 16 N/A
8:16 pm 20:16 Sunny 75 24 73 23 94 94 N N/A 30.00 1016 10 16 N/A
8:36 pm 20:36 Sunny 73 23 72 22 94 94 N N/A 30.00 1016 10 16 N/A
8:57 pm 20:57 Clear 72 22 72 22 100 100 N N/A 30.00 1016 10 16 N/A
9:16 pm 21:16 Clear 70 21 70 21 100 100 N N/A 30.00 1016 10 16 N/A
9:37 pm 21:37 Partly Cloudy 70 21 70 21 100 100 N N/A 30.06 1018 10 16 N/A
9:56 pm 21:56 Partly Cloudy 68 20 68 20 100 100 N N/A 30.06 1018 10 16 N/A
10:17 pm 22:17 Clear 68 20 68 20 100 100 N N/A 30.06 1018 10 16 N/A
10:37 pm 22:37 Clear 66 19 66 19 100 100 N N/A 30.06 1018 10 16 N/A
10:56 pm 22:56 Partly Cloudy 66 19 66 19 100 100 N N/A 30.06 1018 10 16 N/A
11:17 pm 23:17 Clear 66 19 66 19 100 100 N N/A 30.06 1018 10 16 N/A
11:36 pm 23:36 Clear 66 19 66 19 100 100 N N/A 30.06 1018 10 16 N/A
11:57 pm 23:57 Clear 64 18 64 18 100 100 N N/A 30.06 1018 10 16 N/A

Powered by AerisWeather